• In Moldova, Republic
  • List of Countries
  • For 7 days
  • Water Temperature
  • Satellite Maps
  • Weather Map
  • Weather Widgets
  • user-avatar
    Login

    Hourly Weather Namibe

    Today, 21 February, Tuesday

    Time Temperature Precipitation Wind Pressure Humidity
    00:00 +26°C° 0 mm 1 mps 759 mmHg 77%
    01:00 +25°C° 0 mm 1 mps 759 mmHg 79%
    02:00 +25°C° 0 mm 1 mps 758 mmHg 79%
    03:00 +25°C° 0 mm 1 mps 758 mmHg 79%
    04:00 +25°C° 0 mm 1 mps 758 mmHg 79%
    05:00 +25°C° 0 mm 1 mps 758 mmHg 79%
    06:00 +23°C° 0 mm 0 mps 758 mmHg 79%
    07:00 +23°C° 0 mm 0 mps 758 mmHg 79%
    08:00 +27°C° 0 mm 1 mps 758 mmHg 69%
    09:00 +29°C° 0 mm 2 mps 758 mmHg 60%
    10:00 +31°C° 0 mm 3 mps 758 mmHg 51%
    11:00 +33°C° 0 mm 3 mps 758 mmHg 47%
    12:00 +34°C° 0 mm 4 mps 757 mmHg 44%
    13:00 +36°C° 0 mm 5 mps 757 mmHg 40%
    14:00 +35°C° 0 mm 5 mps 757 mmHg 42%
    15:00 +34°C° 0 mm 5 mps 756 mmHg 43%
    16:00 +33°C° 0 mm 5 mps 756 mmHg 45%
    17:00 +32°C° 0 mm 5 mps 756 mmHg 52%
    18:00 +29°C° 0 mm 4 mps 756 mmHg 60%
    19:00 +27°C° 0 mm 4 mps 757 mmHg 67%
    20:00 +27°C° 0 mm 4 mps 757 mmHg 69%
    21:00 +27°C° 0 mm 3 mps 758 mmHg 72%
    22:00 +26°C° 0 mm 3 mps 759 mmHg 74%
    23:00 +26°C° 0 mm 2 mps 758 mmHg 74%

    Tomorrow, 22 February, Wednesday

    Time Temperature Precipitation Wind Pressure Humidity
    00:00 +26°C° 0 mm 2 mps 758 mmHg 74%
    01:00 +26°C° 0 mm 2 mps 758 mmHg 74%
    02:00 +25°C° 0 mm 2 mps 758 mmHg 75%
    03:00 +25°C° 0 mm 2 mps 758 mmHg 76%
    04:00 +25°C° 0 mm 2 mps 757 mmHg 77%
    05:00 +25°C° 0 mm 2 mps 757 mmHg 77%
    06:00 +25°C° 0 mm 2 mps 758 mmHg 77%
    07:00 +25°C° 0 mm 1 mps 758 mmHg 78%
    08:00 +27°C° 0 mm 2 mps 758 mmHg 69%
    09:00 +28°C° 0 mm 2 mps 758 mmHg 61%
    10:00 +30°C° 0 mm 2 mps 758 mmHg 52%
    11:00 +33°C° 0 mm 3 mps 758 mmHg 48%
    12:00 +34°C° 0 mm 4 mps 757 mmHg 43%
    13:00 +36°C° 0 mm 5 mps 757 mmHg 38%
    14:00 +35°C° 0 mm 5 mps 756 mmHg 40%
    15:00 +34°C° 0 mm 5 mps 756 mmHg 41%
    16:00 +34°C° 0 mm 5 mps 756 mmHg 43%
    17:00 +32°C° 0 mm 5 mps 756 mmHg 49%
    18:00 +29°C° 0 mm 5 mps 756 mmHg 56%
    19:00 +28°C° 0 mm 4 mps 757 mmHg 62%
    20:00 +27°C° 0 mm 4 mps 758 mmHg 66%
    21:00 +27°C° 0 mm 3 mps 758 mmHg 70%
    22:00 +26°C° 0 mm 3 mps 759 mmHg 74%
    23:00 +26°C° 0 mm 3 mps 759 mmHg 75%

    Day after tomorrow, 23 February, Thursday

    Time Temperature Precipitation Wind Pressure Humidity
    00:00 +26°C° 0 mm 2 mps 759 mmHg 76%
    01:00 +25°C° 0 mm 2 mps 758 mmHg 77%
    02:00 +25°C° 0 mm 2 mps 758 mmHg 79%
    03:00 +25°C° 0 mm 2 mps 758 mmHg 80%
    04:00 +25°C° 0 mm 2 mps 757 mmHg 81%
    05:00 +25°C° 0 mm 2 mps 757 mmHg 81%
    06:00 +25°C° 0 mm 2 mps 758 mmHg 80%
    07:00 +25°C° 0 mm 2 mps 758 mmHg 80%
    08:00 +27°C° 0 mm 2 mps 758 mmHg 70%
    09:00 +28°C° 0 mm 2 mps 758 mmHg 60%
    10:00 +30°C° 0 mm 2 mps 759 mmHg 50%
    11:00 +33°C° 0 mm 3 mps 758 mmHg 45%
    12:00 +35°C° 0 mm 4 mps 757 mmHg 39%
    13:00 +37°C° 0 mm 5 mps 757 mmHg 33%
    14:00 +36°C° 0 mm 5 mps 756 mmHg 36%
    15:00 +35°C° 0 mm 6 mps 756 mmHg 40%
    16:00 +35°C° 0 mm 6 mps 755 mmHg 43%
    17:00 +33°C° 0 mm 6 mps 756 mmHg 50%
    18:00 +30°C° 0 mm 6 mps 756 mmHg 57%
    19:00 +28°C° 0 mm 5 mps 756 mmHg 64%
    20:00 +27°C° 0 mm 5 mps 757 mmHg 67%
    21:00 +27°C° 0 mm 5 mps 757 mmHg 70%
    22:00 +26°C° 0 mm 4 mps 758 mmHg 73%
    23:00 +26°C° 0 mm 4 mps 758 mmHg 74%

    24 February, Friday

    Time Temperature Precipitation Wind Pressure Humidity
    00:00 +26°C° 0 mm 4 mps 758 mmHg 75%
    01:00 +25°C° 0 mm 4 mps 757 mmHg 76%
    02:00 +25°C° 0 mm 3 mps 757 mmHg 77%
    03:00 +25°C° 0 mm 3 mps 757 mmHg 78%
    04:00 +25°C° 0 mm 3 mps 757 mmHg 79%
    05:00 +25°C° 0 mm 3 mps 757 mmHg 79%
    06:00 +24°C° 0 mm 2 mps 757 mmHg 80%
    07:00 +24°C° 0 mm 2 mps 758 mmHg 80%
    08:00 +26°C° 0 mm 2 mps 758 mmHg 70%
    09:00 +28°C° 0 mm 2 mps 758 mmHg 61%
    10:00 +30°C° 0 mm 2 mps 758 mmHg 52%
    11:00 +33°C° 0 mm 3 mps 757 mmHg 45%
    12:00 +35°C° 0 mm 4 mps 757 mmHg 39%
    13:00 +37°C° 0 mm 5 mps 756 mmHg 33%
    14:00 +36°C° 0 mm 6 mps 756 mmHg 37%
    15:00 +35°C° 0 mm 6 mps 755 mmHg 41%
    16:00 +34°C° 0 mm 7 mps 755 mmHg 44%
    17:00 +33°C° 0 mm 6 mps 756 mmHg 51%
    18:00 +30°C° 0 mm 6 mps 756 mmHg 57%
    19:00 +28°C° 0 mm 5 mps 757 mmHg 64%
    20:00 +27°C° 0 mm 5 mps 757 mmHg 67%
    21:00 +27°C° 0 mm 4 mps 758 mmHg 70%
    22:00 +26°C° 0 mm 4 mps 759 mmHg 72%
    23:00 +26°C° 0 mm 3 mps 758 mmHg 74%

    25 February, Saturday

    Time Temperature Precipitation Wind Pressure Humidity
    00:00 +26°C° 0 mm 3 mps 758 mmHg 75%
    01:00 +25°C° 0 mm 3 mps 758 mmHg 76%
    02:00 +25°C° 0 mm 3 mps 758 mmHg 77%
    03:00 +25°C° 0 mm 3 mps 757 mmHg 77%
    04:00 +25°C° 0 mm 2 mps 757 mmHg 78%
    05:00 +25°C° 0 mm 2 mps 757 mmHg 78%
    06:00 +25°C° 0 mm 3 mps 758 mmHg 77%
    07:00 +25°C° 0 mm 3 mps 758 mmHg 76%
    08:00 +27°C° 0 mm 2 mps 758 mmHg 64%
    09:00 +30°C° 0 mm 2 mps 758 mmHg 52%
    10:00 +34°C° 0 mm 2 mps 758 mmHg 40%
    11:00 +36°C° 0 mm 3 mps 757 mmHg 35%
    12:00 +37°C° 0 mm 4 mps 757 mmHg 31%
    13:00 +40°C° 0 mm 5 mps 756 mmHg 26%
    14:00 +39°C° 0 mm 6 mps 756 mmHg 30%
    15:00 +38°C° 0 mm 6 mps 755 mmHg 34%
    16:00 +36°C° 0 mm 7 mps 755 mmHg 38%
    17:00 +34°C° 0 mm 6 mps 755 mmHg 45%
    18:00 +32°C° 0 mm 6 mps 756 mmHg 52%
    19:00 +29°C° 0 mm 5 mps 756 mmHg 59%
    20:00 +28°C° 0 mm 4 mps 757 mmHg 61%
    21:00 +28°C° 0 mm 4 mps 757 mmHg 64%
    22:00 +27°C° 0 mm 4 mps 758 mmHg 67%
    23:00 +27°C° 0 mm 3 mps 757 mmHg 67%

    26 February, Sunday

    Time Temperature Precipitation Wind Pressure Humidity
    00:00 +27°C° 0 mm 3 mps 757 mmHg 68%
    01:00 +26°C° 0 mm 3 mps 757 mmHg 68%
    02:00 +26°C° 0 mm 3 mps 757 mmHg 69%
    03:00 +26°C° 0 mm 3 mps 757 mmHg 70%
    04:00 +26°C° 0 mm 3 mps 756 mmHg 71%
    05:00 +26°C° 0 mm 3 mps 757 mmHg 71%
    06:00 +26°C° 0 mm 2 mps 757 mmHg 70%
    07:00 +26°C° 0 mm 2 mps 757 mmHg 70%
    08:00 +28°C° 0 mm 2 mps 757 mmHg 61%
    09:00 +30°C° 0 mm 3 mps 757 mmHg 52%
    10:00 +33°C° 0 mm 3 mps 757 mmHg 43%
    11:00 +34°C° 0 mm 4 mps 756 mmHg 40%
    12:00 +36°C° 0 mm 5 mps 756 mmHg 37%
    13:00 +37°C° 0 mm 5 mps 755 mmHg 34%
    14:00 +36°C° 0 mm 6 mps 755 mmHg 38%
    15:00 +35°C° 0 mm 6 mps 754 mmHg 41%
    16:00 +34°C° 0 mm 6 mps 754 mmHg 44%
    17:00 +32°C° 0 mm 5 mps 754 mmHg 51%
    18:00 +29°C° 0 mm 5 mps 755 mmHg 59%
    19:00 +28°C° 0 mm 4 mps 755 mmHg 67%
    20:00 +27°C° 0 mm 4 mps 756 mmHg 69%
    21:00 +27°C° 0 mm 4 mps 756 mmHg 71%
    22:00 +27°C° 0 mm 3 mps 756 mmHg 73%
    23:00 +26°C° 0 mm 3 mps 756 mmHg 73%
    Show more